Preview of NWS' New Version of Forecast
This preview is not operational and should not be used for support decisions.

Regional Weather Roundup (RWR)

Issued by National Weather Service (NWS)

                            
000
ASUS46 KPQR 230810
RWROR 

OREGON REGIONAL WEATHER ROUNDUP
NATIONAL WEATHER SERVICE PORTLAND OR
100 AM PDT TUE APR 23 2019

NOTE: "FAIR" INDICATES FEW OR NO CLOUDS BELOW 12,000 FEET WITH
NO SIGNIFICANT WEATHER AND/OR OBSTRUCTIONS TO VISIBILITY.

ORZ001>013-230900-
NORTHWEST OREGON

  
CITY           SKY/WX    TMP DP  RH WIND       PRES   REMARKS
ASTORIA        CLOUDY    50  47  89 S5        30.23S FOG              
TILLAMOOK      CLOUDY    50  46  87 CALM      30.27R                  
NEWPORT        DRIZZLE   50  48  93 CALM      30.29S                  
PORTLAND       CLOUDY    56  53  90 CALM      30.23S                  
VANCOUVER WA   CLOUDY    56  52  86 CALM      30.22S                  
SCAPPOOSE      CLOUDY    57  53  86 CALM      30.21F                  
HILLSBORO      CLOUDY    55  52  89 CALM      30.21F                  
AURORA         CLOUDY    56  45  66 CALM      30.24R                  
MCMINNVILLE    CLOUDY    54  48  80 S3        30.22S                  
SALEM          CLOUDY    58  44  60 S3        30.22S                  
CORVALLIS      CLOUDY    56  50  80 W3        30.24S                  
EUGENE         CLOUDY    56  50  80 CALM      30.24S                  
$$

ORZ021-028-230900-
SOUTHWEST OREGON

  
CITY           SKY/WX    TMP DP  RH WIND       PRES   REMARKS
NORTH BEND     PTCLDY    52  50  93 CALM      30.27F                  
BROOKINGS      PTCLDY    50  48  93 CALM      30.22F                  
ROSEBURG       CLEAR     58  48  69 N3        30.24S                  
SEXTON SUMMIT  PTCLDY    57  41  55 CALM      30.29F                  
GRANTS PASS    FAIR      57  46  67 CALM      30.26R                  
MEDFORD        PTCLDY    60  46  59 SW3       30.22F                  
$$

ORZ014>016-041-230900-
COLUMBIA GORGE

  
CITY           SKY/WX    TMP DP  RH WIND       PRES   REMARKS
TROUTDALE      CLOUDY    57  52  83 CALM      30.23R                  
HOOD RIVER     CLOUDY    57  45  62 MISG      30.19F                  
THE DALLES     CLOUDY    60  45  57 W13       30.17F                  
$$

ORZ029>031-041-044-049-050-061>064-502-503-505>511-230900-
EASTERN OREGON

  
CITY           SKY/WX    TMP DP  RH WIND       PRES   REMARKS
MADRAS         MOCLDY    52  46  82 S7        30.23S                  
REDMOND        MOCLDY    51  44  77 CALM      30.23S                  
BEND           MOCLDY    55  45  67 SW10      30.23F                  
PRINEVILLE     MOCLDY    50  45  81 S5        30.23F                  
KLAMATH FALLS  MOCLDY    54  43  66 W5        30.28R                  
LAKEVIEW       PTCLDY    49  39  68 N8        30.28F                  
HERMISTON      CLOUDY    60  45  57 SW8       30.14S                  
PENDLETON      CLOUDY    55  44  66 SW5       30.16F                  
JOHN DAY       CLOUDY    54  43  67 E5        30.22F                  
MEACHAM        CLOUDY    47  40  76 CALM      30.21S                  
LA GRANDE      CLOUDY    57  40  52 NW8       30.20R                  
BAKER CITY     MOCLDY    49  40  71 CALM      30.20F                  
BURNS          MOCLDY    50  39  66 W3        30.24F                  
ROME             N/A     44  32  62 S8        30.22S                  
ONTARIO        MOCLDY    54  41  61 SW6       30.17F                  
$$